GW1330 Weather Reports


time (UTC)temp
F
wind
direction
speed
knots
gust
knots
rain 1hr
in
rain 24hr
in
rain mn
in
humidity
%
barometer
mb
20260504201851 73 140 4.3 6.1 0.00 0.00 0.00 38
20260504201349 73 113 2.6 2.6 0.00 0.00 0.00 38
20260504200846 74 53 0.0 0.9 0.00 0.00 0.00 39
20260504200343 74 73 0.9 2.6 0.00 0.00 0.00 38
20260504195839 74 45 0.9 0.9 0.00 0.00 0.00 37
20260504195334 73 57 0.0 1.7 0.00 0.00 0.00 38
20260504194832 73 71 0.0 0.9 0.00 0.00 0.00 37
20260504194328 73 204 1.7 4.3 0.00 0.00 0.00 39
20260504193824 73 57 0.0 0.9 0.00 0.00 0.00 39
20260504193321 74 33 1.7 1.7 0.00 0.00 0.00 40
20260504192820 73 50 0.0 0.9 0.00 0.00 0.00 39
20260504192318 72 82 0.0 2.6 0.00 0.00 0.00 40
20260504191816 72 113 0.9 2.6 0.00 0.00 0.00 40
20260504191313 73 81 0.0 1.7 0.00 0.00 0.00 40
20260504190808 73 45 0.9 1.7 0.00 0.00 0.00 40
20260504190305 73 38 1.7 1.7 0.00 0.00 0.00 39
20260504185801 73 78 0.9 7.0 0.00 0.00 0.00 40
20260504185258 73 54 0.9 7.0 0.00 0.00 0.00 39
20260504184754 72 52 0.0 7.0 0.00 0.00 0.00 39
20260504184250 73 105 0.9 1.7 0.00 0.00 0.00 38
20260504183746 72 72 0.9 2.6 0.00 0.00 0.00 39
20260504183243 72 173 3.5 5.2 0.00 0.00 0.00 40
20260504182741 73 149 3.5 4.3 0.00 0.00 0.00 40
20260504182238 73 94 1.7 4.3 0.00 0.00 0.00 41
20260504181736 73 124 3.5 6.1 0.00 0.00 0.00 38
20260504181233 72 56 0.0 0.0 0.00 0.00 0.00 41
20260504180732 73 145 3.5 5.2 0.00 0.00 0.00 38
20260504180231 72 135 2.6 4.3 0.00 0.00 0.00 38
20260504175728 71 45 0.9 2.6 0.00 0.00 0.00 40
20260504175224 72 177 2.6 4.3 0.00 0.00 0.00 39
20260504174723 71 51 0.9 2.6 0.00 0.00 0.00 38
20260504174220 71 91 2.6 5.2 0.00 0.00 0.00 40
20260504173716 73 40 1.7 2.6 0.00 0.00 0.00 37
20260504173213 71 67 0.0 2.6 0.00 0.00 0.00 40
20260504172710 72 36 0.9 2.6 0.00 0.00 0.00 39
20260504172206 73 53 0.0 1.7 0.00 0.00 0.00 39
20260504171703 71 68 0.0 1.7 0.00 0.00 0.00 44
20260504171200 72 31 1.7 5.2 0.00 0.00 0.00 39
20260504170656 71 77 2.6 5.2 0.00 0.00 0.00 38
20260504170154 71 189 3.5 4.3 0.00 0.00 0.00 40
20260504160112 70 162 5.2 7.0 0.00 0.00 0.00 39
20260504151039 68 105 2.6 4.3 0.00 0.00 0.00 40
20260504150537 67 57 0.9 0.9 0.00 0.00 0.00 45
20260504141003 62 80 0.0 2.6 0.00 0.00 0.00 44
20260504140459 63 77 0.0 2.6 0.00 0.00 0.00 49
20260504130424 58 70 0.0 0.9 0.00 0.00 0.00 51
20260504110311 48 75 0.0 0.0 0.00 0.00 0.00 67
20260504100229 40 56 0.0 0.0 0.00 0.00 0.00 81
20260504081622 42 55 0.0 0.0 0.00 0.00 0.00 72
20260504081118 43 55 0.0 0.0 0.00 0.00 0.00 75
20260504080615 43 55 0.0 0.0 0.00 0.00 0.00 73
20260504080111 43 54 0.0 0.0 0.00 0.00 0.00 71
20260504050427 44 54 0.0 0.0 0.00 0.00 0.00 70
20260504045924 45 54 0.0 0.0 0.00 0.00 0.00 68
20260504045420 46 54 0.0 0.0 0.00 0.00 0.00 68
20260504044916 46 54 0.0 0.0 0.00 0.00 0.00 65
20260504044414 46 54 0.0 0.0 0.00 0.00 0.00 67
20260504043911 47 54 0.0 0.0 0.00 0.00 0.00 66
20260504043408 47 54 0.0 0.0 0.00 0.00 0.00 62
20260504042906 48 54 0.0 0.0 0.00 0.00 0.00 63
20260504042402 48 54 0.0 0.0 0.00 0.00 0.00 61
20260504041858 48 54 0.0 0.0 0.00 0.00 0.00 60
20260504041354 46 54 0.0 0.0 0.00 0.00 0.00 65
20260504040850 46 54 0.0 0.0 0.00 0.00 0.00 66
20260504040348 47 54 0.0 0.9 0.00 0.00 0.00 65
20260504035844 48 54 0.0 0.0 0.00 0.00 0.00 62
20260504035342 47 54 0.0 0.0 0.00 0.00 0.00 60
20260504034838 47 54 0.0 0.0 0.00 0.00 0.00 63
20260504034336 48 54 0.0 0.0 0.00 0.00 0.00 62
20260504033833 49 54 0.0 0.0 0.00 0.00 0.00 60
20260504033331 49 54 0.0 0.9 0.00 0.00 0.00 58
20260504032827 48 54 0.0 0.9 0.00 0.00 0.00 58
20260504032325 48 54 0.0 0.0 0.00 0.00 0.00 63
20260504031821 47 54 0.0 0.0 0.00 0.00 0.00 65
20260504031319 47 54 0.0 0.0 0.00 0.00 0.00 64
20260504030815 47 54 0.0 0.0 0.00 0.00 0.00 64
20260504030312 46 54 0.0 0.0 0.00 0.00 0.00 63
20260504025808 47 54 0.0 0.0 0.00 0.00 0.00 66
20260504025306 47 54 0.0 0.0 0.00 0.00 0.00 66
20260504024802 46 54 0.0 0.0 0.00 0.00 0.00 65
20260504024258 46 54 0.0 0.0 0.00 0.00 0.00 65
20260504023755 47 54 0.0 0.0 0.00 0.00 0.00 64
20260504023252 47 54 0.0 0.0 0.00 0.00 0.00 64
20260504022748 47 54 0.0 0.0 0.00 0.00 0.00 65
20260504022244 47 54 0.0 0.0 0.00 0.00 0.00 64
20260504021741 48 54 0.0 0.0 0.00 0.00 0.00 62
20260504021238 48 54 0.0 0.0 0.00 0.00 0.00 63
20260504020735 48 54 0.0 0.0 0.00 0.00 0.00 62
20260504020232 48 54 0.0 0.0 0.00 0.00 0.00 60
20260504015728 49 54 0.0 0.0 0.00 0.00 0.00 58
20260504015225 49 54 0.0 0.0 0.00 0.00 0.00 60
20260504014720 50 54 0.0 0.0 0.00 0.00 0.00 58
20260504014217 50 54 0.0 0.0 0.00 0.00 0.00 56
20260504013715 50 54 0.0 0.0 0.00 0.00 0.00 57
20260504013212 50 54 0.0 0.0 0.00 0.00 0.00 57
20260504012709 50 54 0.0 0.0 0.00 0.00 0.00 57
20260504012207 51 54 0.0 0.0 0.00 0.00 0.00 53
20260504011703 51 54 0.0 0.0 0.00 0.00 0.00 52
20260504011200 51 54 0.0 0.0 0.00 0.00 0.00 51
20260504010656 51 54 0.0 0.0 0.00 0.00 0.00 56
20260504010152 51 54 0.0 0.0 0.00 0.00 0.00 51
20260504005649 52 54 0.0 0.0 0.00 0.00 0.00 52
20260504005145 52 54 0.0 0.0 0.00 0.00 0.00 48
20260504004644 53 54 0.0 0.0 0.00 0.00 0.00 48
20260504004140 53 54 0.0 0.0 0.00 0.00 0.00 48
20260504003637 54 54 0.0 0.0 0.00 0.00 0.00 49
20260504003133 54 54 0.0 0.0 0.00 0.00 0.00 46
20260504002630 54 54 0.0 0.9 0.00 0.00 0.00 44
20260504002128 54 54 0.0 0.0 0.00 0.00 0.00 47
20260504001625 54 54 0.0 0.9 0.00 0.00 0.00 47
20260504001121 54 55 0.0 0.0 0.00 0.00 0.00 47
20260504000619 55 55 0.0 0.9 0.00 0.00 0.00 47
20260504000116 56 55 0.0 0.0 0.00 0.00 0.00 44
20260503235614 57 55 0.0 0.0 0.00 0.00 0.00 43
20260503235111 57 55 0.0 0.9 0.00 0.00 0.00 41
20260503234609 57 54 0.0 0.9 0.00 0.00 0.00 42
20260503234106 58 55 0.0 1.7 0.00 0.00 0.00 40
20260503233603 59 52 0.9 0.9 0.00 0.00 0.00 38
20260503233059 59 44 1.7 1.7 0.00 0.00 0.00 37
20260503232556 59 49 0.9 1.7 0.00 0.00 0.00 36
20260503232053 58 49 0.9 1.7 0.00 0.00 0.00 38
20260503231551 58 56 0.0 0.0 0.00 0.00 0.00 39
20260503231048 59 57 0.0 0.0 0.00 0.00 0.00 38
20260503230544 59 56 0.0 0.0 0.00 0.00 0.00 37
20260503230042 59 58 0.0 0.0 0.00 0.00 0.00 37
20260503225538 59 56 0.9 2.6 0.00 0.00 0.00 37
20260503225033 59 49 1.7 4.3 0.00 0.00 0.00 37
20260503224531 60 42 2.6 4.3 0.00 0.00 0.00 36
20260503224029 60 339 0.9 4.3 0.00 0.00 0.00 37
20260503223527 60 52 2.6 4.3 0.00 0.00 0.00 35
20260503223022 60 40 1.7 2.6 0.00 0.00 0.00 34
20260503222520 60 21 2.6 4.3 0.00 0.00 0.00 35
20260503222018 60 57 2.6 4.3 0.00 0.00 0.00 38
20260503221516 60 60 1.7 4.3 0.00 0.00 0.00 35
20260503221013 60 33 2.6 2.6 0.00 0.00 0.00 35
20260503220509 60 66 2.6 4.3 0.00 0.00 0.00 36
20260503220006 60 346 2.6 4.3 0.00 0.00 0.00 35
20260503215503 60 55 2.6 5.2 0.00 0.00 0.00 36
20260503215000 60 54 2.6 2.6 0.00 0.00 0.00 36
20260503214458 60 22 3.5 5.2 0.00 0.00 0.00 36
20260503213955 60 51 1.7 2.6 0.00 0.00 0.00 37
20260503213453 60 58 1.7 4.3 0.00 0.00 0.00 37
20260503212949 60 56 2.6 4.3 0.00 0.00 0.00 35
20260503212447 60 43 2.6 4.3 0.00 0.00 0.00 36
20260503211944 60 45 3.5 4.3 0.00 0.00 0.00 37
20260503211441 60 57 1.7 5.2 0.00 0.00 0.00 37
20260503210937 60 40 2.6 4.3 0.00 0.00 0.00 36
20260503210433 60 57 2.6 2.6 0.00 0.00 0.00 36
20260503205928 59 349 6.1 7.8 0.00 0.00 0.00 35
20260503205426 60 58 2.6 5.2 0.00 0.00 0.00 34
20260503204922 60 343 2.6 4.3 0.00 0.00 0.00 36
20260503204419 60 50 1.7 6.1 0.00 0.00 0.00 35
20260503203916 60 317 3.5 8.7 0.00 0.00 0.00 34
20260503203413 60 55 0.9 4.3 0.00 0.00 0.00 39
20260503202910 61 56 2.6 4.3 0.00 0.00 0.00 34
20260503202409 60 56 1.7 2.6 0.00 0.00 0.00 37